When you browse on this site, cookies collect data to enhance your experience and personalize the content and advertising you see.
Visit our Privacy Policy to learn more. By continuing to use the site, you agree to this use of cookies and data.
  • In Romania
  • List of Countries
  • For 7 days
  • Water Temperature
  • Weather Map
  • Weather Widgets
  • user-avatar
    Login

    Hourly Weather Shusha

    Today, 18 November, Monday

    Time Temperature Precipitation Wind Pressure Humidity
    00:00 +1°C° 0 mm 1 mps 666 mmHg 63%
    01:00 +1°C° 0 mm 1 mps 665 mmHg 63%
    02:00 0°C° 0 mm 0 mps 665 mmHg 63%
    03:00 0°C° 0 mm 0 mps 664 mmHg 62%
    04:00 0°C° 0 mm 0 mps 665 mmHg 62%
    05:00 0°C° 0 mm 0 mps 665 mmHg 62%
    06:00 -1°C° 0 mm 0 mps 665 mmHg 63%
    07:00 +2°C° 0 mm 1 mps 665 mmHg 58%
    08:00 +3°C° 0 mm 1 mps 666 mmHg 54%
    09:00 +5°C° 0 mm 1 mps 666 mmHg 49%
    10:00 +5°C° 0 mm 1 mps 666 mmHg 48%
    11:00 +6°C° 0 mm 1 mps 666 mmHg 46%
    12:00 +6°C° 0 mm 2 mps 666 mmHg 45%
    13:00 +6°C° 0 mm 2 mps 665 mmHg 46%
    14:00 +6°C° 0 mm 2 mps 665 mmHg 48%
    15:00 +6°C° 0 mm 2 mps 664 mmHg 49%
    16:00 +5°C° 0 mm 1 mps 664 mmHg 55%
    17:00 +4°C° 0 mm 1 mps 664 mmHg 61%
    18:00 +2°C° 0 mm 0 mps 664 mmHg 67%
    19:00 +2°C° 0 mm 0 mps 664 mmHg 66%
    20:00 +2°C° 0 mm 0 mps 664 mmHg 65%
    21:00 +2°C° 0 mm 0 mps 664 mmHg 63%
    22:00 +3°C° 0 mm 1 mps 664 mmHg 62%
    23:00 +3°C° 0 mm 1 mps 664 mmHg 61%

    Tomorrow, 19 November, Tuesday

    Time Temperature Precipitation Wind Pressure Humidity
    00:00 +4°C° 0 mm 1 mps 664 mmHg 59%
    01:00 +3°C° 0 mm 1 mps 664 mmHg 60%
    02:00 +2°C° 0 mm 0 mps 663 mmHg 61%
    03:00 +2°C° 0 mm 0 mps 663 mmHg 61%
    04:00 +2°C° 0 mm 0 mps 663 mmHg 61%
    05:00 +2°C° 0 mm 0 mps 663 mmHg 61%
    06:00 +2°C° 0 mm 0 mps 663 mmHg 60%
    07:00 +4°C° 0 mm 1 mps 663 mmHg 57%
    08:00 +5°C° 0 mm 1 mps 664 mmHg 53%
    09:00 +6°C° 0 mm 1 mps 664 mmHg 49%
    10:00 +7°C° 0 mm 1 mps 664 mmHg 49%
    11:00 +7°C° 0 mm 1 mps 664 mmHg 48%
    12:00 +7°C° 0 mm 2 mps 663 mmHg 47%
    13:00 +7°C° 0 mm 2 mps 663 mmHg 50%
    14:00 +7°C° 0 mm 2 mps 663 mmHg 52%
    15:00 +7°C° 0 mm 2 mps 663 mmHg 54%
    16:00 +6°C° 0 mm 1 mps 663 mmHg 62%
    17:00 +5°C° 0 mm 1 mps 662 mmHg 69%
    18:00 +4°C° 0 mm 1 mps 662 mmHg 76%
    19:00 +4°C° 0 mm 1 mps 662 mmHg 73%
    20:00 +4°C° 0 mm 1 mps 662 mmHg 71%
    21:00 +4°C° 0 mm 1 mps 662 mmHg 68%
    22:00 +4°C° 0 mm 1 mps 662 mmHg 63%
    23:00 +4°C° 0 mm 1 mps 662 mmHg 57%

    Day after tomorrow, 20 November, Wednesday

    Time Temperature Precipitation Wind Pressure Humidity
    00:00 +4°C° 0 mm 1 mps 662 mmHg 52%
    01:00 +3°C° 0 mm 1 mps 662 mmHg 49%
    02:00 +3°C° 0 mm 1 mps 662 mmHg 47%
    03:00 +3°C° 0 mm 1 mps 662 mmHg 44%
    04:00 +3°C° 0 mm 1 mps 661 mmHg 43%
    05:00 +3°C° 0 mm 1 mps 661 mmHg 43%
    06:00 +3°C° 0 mm 1 mps 661 mmHg 42%
    07:00 +4°C° 0 mm 1 mps 662 mmHg 39%
    08:00 +6°C° 0 mm 1 mps 662 mmHg 36%
    09:00 +7°C° 0 mm 1 mps 663 mmHg 33%
    10:00 +8°C° 0 mm 1 mps 663 mmHg 33%
    11:00 +9°C° 0 mm 1 mps 663 mmHg 34%
    12:00 +9°C° 0 mm 2 mps 662 mmHg 34%
    13:00 +9°C° 0 mm 2 mps 662 mmHg 36%
    14:00 +9°C° 0 mm 2 mps 662 mmHg 38%
    15:00 +8°C° 0 mm 2 mps 661 mmHg 40%
    16:00 +8°C° 0 mm 1 mps 661 mmHg 47%
    17:00 +6°C° 0 mm 1 mps 661 mmHg 53%
    18:00 +3°C° 0 mm 0 mps 661 mmHg 60%
    19:00 +3°C° 0 mm 0 mps 661 mmHg 62%
    20:00 +2°C° 0 mm 0 mps 661 mmHg 64%
    21:00 +2°C° 0 mm 0 mps 661 mmHg 66%
    22:00 +1°C° 0 mm 0 mps 660 mmHg 69%
    23:00 +1°C° 0 mm 0 mps 660 mmHg 73%

    21 November, Thursday

    Time Temperature Precipitation Wind Pressure Humidity
    00:00 +1°C° 0 mm 0 mps 660 mmHg 77%
    01:00 +1°C° 0 mm 0 mps 660 mmHg 79%
    02:00 0°C° 0 mm 0 mps 660 mmHg 82%
    03:00 0°C° 0 mm 0 mps 660 mmHg 84%
    04:00 0°C° 0 mm 0 mps 660 mmHg 86%
    05:00 +1°C° 0 mm 1 mps 660 mmHg 88%
    06:00 +1°C° 0 mm 1 mps 660 mmHg 90%
    07:00 +2°C° 0.1 mm 1 mps 661 mmHg 89%
    08:00 +2°C° 0.1 mm 1 mps 661 mmHg 87%
    09:00 +3°C° 0.1 mm 1 mps 661 mmHg 86%
    10:00 +3°C° 0.1 mm 1 mps 661 mmHg 86%
    11:00 +2°C° 0.1 mm 2 mps 661 mmHg 85%
    12:00 +2°C° 0.1 mm 2 mps 660 mmHg 85%
    13:00 +2°C° 0.1 mm 2 mps 660 mmHg 87%
    14:00 +2°C° 0.1 mm 2 mps 660 mmHg 89%
    15:00 +2°C° 0.1 mm 2 mps 660 mmHg 90%
    16:00 +1°C° 0.1 mm 2 mps 661 mmHg 92%
    17:00 +2°C° 0.1 mm 1 mps 661 mmHg 93%
    18:00 +2°C° 0.1 mm 1 mps 661 mmHg 94%
    19:00 +2°C° 0.2 mm 1 mps 662 mmHg 94%
    20:00 +2°C° 0.2 mm 1 mps 662 mmHg 95%
    21:00 +1°C° 0.2 mm 1 mps 662 mmHg 96%
    22:00 +1°C° 0.4 mm 1 mps 662 mmHg 96%
    23:00 +1°C° 0.4 mm 1 mps 663 mmHg 96%

    22 November, Friday

    Time Temperature Precipitation Wind Pressure Humidity
    00:00 +1°C° 0.4 mm 1 mps 663 mmHg 96%
    01:00 +1°C° 0.2 mm 1 mps 663 mmHg 96%
    02:00 +1°C° 0.2 mm 1 mps 663 mmHg 96%
    03:00 0°C° 0.2 mm 1 mps 663 mmHg 96%
    04:00 0°C° 0.2 mm 1 mps 663 mmHg 96%
    05:00 0°C° 0.2 mm 1 mps 664 mmHg 96%
    06:00 0°C° 0.2 mm 1 mps 664 mmHg 96%
    07:00 0°C° 0.1 mm 1 mps 664 mmHg 94%
    08:00 -2°C° 0.1 mm 2 mps 665 mmHg 93%
    09:00 -2°C° 0.1 mm 2 mps 665 mmHg 92%
    10:00 -2°C° 0.1 mm 2 mps 665 mmHg 91%
    11:00 -1°C° 0.1 mm 2 mps 665 mmHg 90%
    12:00 -1°C° 0.1 mm 2 mps 665 mmHg 90%
    13:00 -1°C° 0.1 mm 2 mps 665 mmHg 90%
    14:00 -1°C° 0.1 mm 2 mps 665 mmHg 91%
    15:00 -1°C° 0.1 mm 2 mps 665 mmHg 91%
    16:00 +1°C° 0.1 mm 1 mps 665 mmHg 92%
    17:00 0°C° 0.1 mm 1 mps 665 mmHg 94%
    18:00 0°C° 0.1 mm 1 mps 665 mmHg 95%
    19:00 0°C° 0.1 mm 1 mps 666 mmHg 95%
    20:00 0°C° 0.1 mm 1 mps 666 mmHg 95%
    21:00 -1°C° 0.1 mm 1 mps 666 mmHg 95%
    22:00 -1°C° 0.1 mm 1 mps 666 mmHg 95%
    23:00 -1°C° 0.1 mm 1 mps 666 mmHg 95%

    23 November, Saturday

    Time Temperature Precipitation Wind Pressure Humidity
    00:00 -2°C° 0.1 mm 1 mps 665 mmHg 95%
    01:00 -2°C° 0 mm 1 mps 665 mmHg 95%
    02:00 -2°C° 0 mm 1 mps 665 mmHg 95%
    03:00 -2°C° 0 mm 1 mps 665 mmHg 95%
    04:00 -2°C° 0 mm 1 mps 665 mmHg 95%
    05:00 -2°C° 0 mm 1 mps 665 mmHg 95%
    06:00 -2°C° 0 mm 1 mps 665 mmHg 95%
    07:00 -2°C° 0 mm 1 mps 665 mmHg 93%
    08:00 -1°C° 0 mm 1 mps 665 mmHg 90%
    09:00 -1°C° 0 mm 1 mps 665 mmHg 88%
    10:00 0°C° 0 mm 1 mps 665 mmHg 87%
    11:00 0°C° 0 mm 1 mps 665 mmHg 86%
    12:00 0°C° 0 mm 1 mps 665 mmHg 85%
    13:00 0°C° 0 mm 1 mps 664 mmHg 87%
    14:00 0°C° 0 mm 1 mps 664 mmHg 88%
    15:00 0°C° 0 mm 1 mps 664 mmHg 90%
    16:00 0°C° 0 mm 1 mps 664 mmHg 92%
    17:00 0°C° 0 mm 1 mps 664 mmHg 93%
    18:00 -1°C° 0 mm 1 mps 664 mmHg 95%
    19:00 -1°C° 0 mm 1 mps 664 mmHg 95%
    20:00 -1°C° 0 mm 1 mps 664 mmHg 95%
    21:00 -1°C° 0 mm 1 mps 665 mmHg 95%
    22:00 -1°C° 0 mm 1 mps 664 mmHg 94%
    23:00 -2°C° 0 mm 0 mps 664 mmHg 94%
    Show more